Terug naar catalogus

FENGYUN 1C DEB

ActiefSSO
NORAD 29978·DEBRIS·🇨🇳 China

Gelanceerd May 10, 1999 vanaf Taiyuan Satellite Launch Center

Loading…

Volgende Passages (komende 24 uur)

TLE

VersSource: Space-Track

Epoch: Sep 14, 2026, 10:12 UTC

1 29978U 99025LC  26257.42505191  .00000201  00000-0  17452-3 0  9994
2 29978  99.0232 307.7958 0076241  16.9113 356.4885 13.95985385  1615

Volg FENGYUN 1C DEB in realtime met AllMySat

Download on the App Store